Time,TemperatureF,DewpointF,PressureIn,WindDirection,WindDirectionDegrees,WindSpeedMPH,WindSpeedGustMPH,Humidity,HourlyPrecipIn,Conditions,Clouds,dailyrainin,SolarRadiationWatts/m^2,SoftwareType,DateUTC
2013-05-17 00:00:00,61.5,56.6,29.91,WSW,237,0.0,0.0,84,0.00,,,0.00,0,Wunderground v.1.15,2013-05-17 04:00:00,
2013-05-17 00:10:00,61.8,56.9,29.92,WSW,237,0.0,0.0,84,0.00,,,0.00,0,Wunderground v.1.15,2013-05-17 04:10:00,
2013-05-17 00:20:00,61.9,56.3,29.92,WSW,237,0.0,0.0,82,0.00,,,0.00,0,Wunderground v.1.15,2013-05-17 04:20:00,
2013-05-17 00:30:00,60.3,56.1,29.91,WSW,237,0.0,0.0,86,0.00,,,0.00,0,Wunderground v.1.15,2013-05-17 04:30:00,
2013-05-17 00:40:00,59.8,55.6,29.92,WSW,237,0.0,0.0,86,0.00,,,0.00,0,Wunderground v.1.15,2013-05-17 04:40:00,
2013-05-17 00:50:00,59.7,55.8,29.92,WSW,237,0.0,0.0,87,0.00,,,0.00,0,Wunderground v.1.15,2013-05-17 04:50:00,
2013-05-17 01:00:00,59.6,55.7,29.92,WSW,237,0.0,0.0,87,0.00,,,0.00,0,Wunderground v.1.15,2013-05-17 05:00:00,
2013-05-17 01:10:00,59.7,56.1,29.92,WSW,237,0.0,0.0,88,0.00,,,0.00,0,Wunderground v.1.15,2013-05-17 05:10:00,
2013-05-17 01:20:00,59.3,55.4,29.92,WSW,237,0.0,0.0,87,0.00,,,0.00,0,Wunderground v.1.15,2013-05-17 05:20:00,
2013-05-17 01:30:00,57.9,54.1,29.91,WSW,237,0.0,0.0,87,0.00,,,0.00,0,Wunderground v.1.15,2013-05-17 05:30:00,
2013-05-17 01:40:00,57.7,54.8,29.91,WSW,237,0.0,0.0,90,0.00,,,0.00,0,Wunderground v.1.15,2013-05-17 05:40:00,
2013-05-17 01:50:00,56.2,53.6,29.91,WSW,237,0.0,0.0,91,0.00,,,0.00,0,Wunderground v.1.15,2013-05-17 05:50:00,
2013-05-17 02:00:00,55.5,53.2,29.91,WSW,237,0.0,0.0,92,0.00,,,0.00,0,Wunderground v.1.15,2013-05-17 06:00:00,
2013-05-17 02:10:00,54.8,52.5,29.91,WSW,237,0.0,0.0,92,0.00,,,0.00,0,Wunderground v.1.15,2013-05-17 06:10:00,
2013-05-17 02:20:00,55.9,53.9,29.91,WSW,237,0.0,0.0,93,0.00,,,0.00,0,Wunderground v.1.15,2013-05-17 06:20:00,
2013-05-17 02:30:00,56.1,54.1,29.91,WSW,237,0.0,0.0,93,0.00,,,0.00,0,Wunderground v.1.15,2013-05-17 06:30:00,
2013-05-17 02:40:00,54.9,52.6,29.92,WSW,237,0.0,0.0,92,0.00,,,0.00,0,Wunderground v.1.15,2013-05-17 06:40:00,
2013-05-17 02:50:00,55.9,54.2,29.92,WSW,237,0.0,0.0,94,0.00,,,0.00,0,Wunderground v.1.15,2013-05-17 06:50:00,
2013-05-17 03:00:00,55.8,54.1,29.92,WSW,237,0.0,0.0,94,0.00,,,0.00,0,Wunderground v.1.15,2013-05-17 07:00:00,
2013-05-17 03:10:00,56.4,54.7,29.92,WSW,237,0.0,0.0,94,0.00,,,0.00,0,Wunderground v.1.15,2013-05-17 07:10:00,
2013-05-17 03:20:00,54.8,53.1,29.92,WSW,237,0.0,0.0,94,0.00,,,0.00,0,Wunderground v.1.15,2013-05-17 07:20:00,
2013-05-17 03:30:00,54.5,52.8,29.93,WSW,237,0.0,0.0,94,0.00,,,0.00,0,Wunderground v.1.15,2013-05-17 07:30:00,
2013-05-17 03:40:00,53.8,52.1,29.93,WSW,237,0.0,0.0,94,0.00,,,0.00,0,Wunderground v.1.15,2013-05-17 07:40:00,
2013-05-17 03:50:00,54.3,52.9,29.94,WSW,237,0.0,0.0,95,0.00,,,0.00,0,Wunderground v.1.15,2013-05-17 07:50:00,
2013-05-17 04:00:00,52.8,51.4,29.94,WSW,237,0.0,0.0,95,0.00,,,0.00,0,Wunderground v.1.15,2013-05-17 08:00:00,
2013-05-17 04:10:00,53.5,51.8,29.94,WSW,237,0.0,0.0,94,0.00,,,0.00,0,Wunderground v.1.15,2013-05-17 08:10:00,
2013-05-17 04:20:00,53.7,52.6,29.95,WSW,237,0.0,0.0,96,0.00,,,0.00,0,Wunderground v.1.15,2013-05-17 08:20:00,
2013-05-17 04:30:00,52.5,50.8,29.95,WSW,237,0.0,0.0,94,0.00,,,0.00,0,Wunderground v.1.15,2013-05-17 08:30:00,
2013-05-17 04:40:00,53.3,52.2,29.96,WSW,237,0.0,0.0,96,0.00,,,0.00,0,Wunderground v.1.15,2013-05-17 08:40:00,
2013-05-17 04:50:00,54.2,53.1,29.96,WSW,237,0.0,0.0,96,0.00,,,0.00,0,Wunderground v.1.15,2013-05-17 08:50:00,
2013-05-17 05:00:00,54.2,53.1,29.97,WSW,237,0.0,0.0,96,0.00,,,0.00,0,Wunderground v.1.15,2013-05-17 09:00:00,
2013-05-17 05:10:00,53.9,52.5,29.97,WSW,237,0.0,0.0,95,0.00,,,0.00,0,Wunderground v.1.15,2013-05-17 09:10:00,
2013-05-17 05:20:00,53.6,52.2,29.98,WSW,237,0.0,0.0,95,0.00,,,0.00,0,Wunderground v.1.15,2013-05-17 09:20:00,
2013-05-17 05:30:00,53.9,52.8,29.99,WSW,237,0.0,0.0,96,0.00,,,0.00,0,Wunderground v.1.15,2013-05-17 09:30:00,
2013-05-17 05:40:00,53.7,52.3,29.99,WSW,237,0.0,0.0,95,0.00,,,0.00,0,Wunderground v.1.15,2013-05-17 09:40:00,
2013-05-17 05:50:00,53.6,52.5,30.00,WSW,237,0.0,0.0,96,0.00,,,0.00,0,Wunderground v.1.15,2013-05-17 09:50:00,
2013-05-17 06:00:00,53.3,52.2,30.00,WSW,237,0.0,0.0,96,0.00,,,0.00,5,Wunderground v.1.15,2013-05-17 10:00:00,
2013-05-17 06:10:00,53.9,52.8,30.01,WSW,237,0.0,0.0,96,0.00,,,0.00,12,Wunderground v.1.15,2013-05-17 10:10:00,
2013-05-17 06:20:00,54.5,53.4,30.02,WSW,237,0.0,0.0,96,0.00,,,0.00,23,Wunderground v.1.15,2013-05-17 10:20:00,
2013-05-17 06:30:00,54.9,53.8,30.03,WSW,237,0.0,0.0,96,0.00,,,0.00,39,Wunderground v.1.15,2013-05-17 10:30:00,
2013-05-17 06:40:00,55.1,54.0,30.03,WSW,237,0.0,0.0,96,0.00,,,0.00,62,Wunderground v.1.15,2013-05-17 10:40:00,
2013-05-17 06:50:00,56.6,55.5,30.03,WSW,237,0.0,0.0,96,0.00,,,0.00,84,Wunderground v.1.15,2013-05-17 10:50:00,
2013-05-17 07:00:00,57.5,56.4,30.03,WSW,237,0.0,0.0,96,0.00,,,0.00,109,Wunderground v.1.15,2013-05-17 11:00:00,
2013-05-17 07:10:00,58.3,56.9,30.04,WSW,237,0.0,0.0,95,0.00,,,0.00,135,Wunderground v.1.15,2013-05-17 11:10:00,
2013-05-17 07:20:00,59.6,58.2,30.05,WSW,240,0.0,0.0,95,0.00,,,0.00,165,Wunderground v.1.15,2013-05-17 11:20:00,
2013-05-17 07:30:00,60.9,58.9,30.05,WSW,240,0.0,0.0,93,0.00,,,0.00,192,Wunderground v.1.15,2013-05-17 11:30:00,
2013-05-17 07:40:00,62.1,59.4,30.06,SSW,204,1.0,1.0,91,0.00,,,0.00,221,Wunderground v.1.15,2013-05-17 11:40:00,
2013-05-17 07:50:00,63.1,59.5,30.06,SSW,203,0.0,0.0,88,0.00,,,0.00,257,Wunderground v.1.15,2013-05-17 11:50:00,
2013-05-17 08:00:00,64.2,59.6,30.06,SSW,203,0.0,0.0,85,0.00,,,0.00,294,Wunderground v.1.15,2013-05-17 12:00:00,
2013-05-17 08:10:00,65.6,60.3,30.06,SSW,203,0.0,0.0,83,0.00,,,0.00,327,Wunderground v.1.15,2013-05-17 12:10:00,
2013-05-17 08:20:00,66.6,60.9,30.06,NW,322,0.0,0.0,82,0.00,,,0.00,359,Wunderground v.1.15,2013-05-17 12:20:00,
2013-05-17 08:30:00,67.4,61.7,30.07,NNW,341,0.0,0.0,82,0.00,,,0.00,388,Wunderground v.1.15,2013-05-17 12:30:00,
2013-05-17 08:40:00,68.4,62.3,30.07,North,349,0.0,0.0,81,0.00,,,0.00,404,Wunderground v.1.15,2013-05-17 12:40:00,
2013-05-17 08:50:00,68.6,62.2,30.07,North,350,0.0,0.0,80,0.00,,,0.00,436,Wunderground v.1.15,2013-05-17 12:50:00,
2013-05-17 09:00:00,69.3,62.1,30.07,North,355,0.0,0.0,78,0.00,,,0.00,466,Wunderground v.1.15,2013-05-17 13:00:00,
2013-05-17 09:10:00,69.7,61.8,30.06,North,5,0.0,0.0,76,0.00,,,0.00,508,Wunderground v.1.15,2013-05-17 13:10:00,
2013-05-17 09:20:00,70.4,62.5,30.07,NNE,31,0.0,0.0,76,0.00,,,0.00,545,Wunderground v.1.15,2013-05-17 13:20:00,
2013-05-17 09:30:00,70.7,62.8,30.07,North,5,1.0,1.0,76,0.00,,,0.00,559,Wunderground v.1.15,2013-05-17 13:30:00,
2013-05-17 09:40:00,71.3,62.6,30.07,NNW,341,1.0,1.0,74,0.00,,,0.00,629,Wunderground v.1.15,2013-05-17 13:40:00,
2013-05-17 09:50:00,72.1,62.6,30.07,NNW,342,1.0,1.0,72,0.00,,,0.00,642,Wunderground v.1.15,2013-05-17 13:50:00,
2013-05-17 10:00:00,71.8,62.3,30.07,ESE,106,1.0,2.0,72,0.00,,,0.00,647,Wunderground v.1.15,2013-05-17 14:00:00,
2013-05-17 10:10:00,72.4,62.1,30.07,NNW,340,1.0,1.0,70,0.00,,,0.00,689,Wunderground v.1.15,2013-05-17 14:10:00,
2013-05-17 10:20:00,73.0,61.0,30.07,West,266,1.0,1.0,66,0.00,,,0.00,717,Wunderground v.1.15,2013-05-17 14:20:00,
2013-05-17 10:30:00,72.9,62.5,30.07,SE,129,1.0,1.0,70,0.00,,,0.00,737,Wunderground v.1.15,2013-05-17 14:30:00,
2013-05-17 10:40:00,74.0,61.5,30.07,WNW,290,1.0,1.0,65,0.00,,,0.00,756,Wunderground v.1.15,2013-05-17 14:40:00,
2013-05-17 10:50:00,73.7,62.5,30.07,WSW,238,1.0,1.0,68,0.00,,,0.00,770,Wunderground v.1.15,2013-05-17 14:50:00,
2013-05-17 11:00:00,74.1,61.1,30.07,NNW,340,1.0,2.0,64,0.00,,,0.00,789,Wunderground v.1.15,2013-05-17 15:00:00,
2013-05-17 11:10:00,74.6,62.1,30.07,NNW,340,0.0,0.0,65,0.00,,,0.00,782,Wunderground v.1.15,2013-05-17 15:10:00,
2013-05-17 11:20:00,74.8,61.8,30.06,West,281,1.0,1.0,64,0.00,,,0.00,809,Wunderground v.1.15,2013-05-17 15:20:00,
2013-05-17 11:30:00,74.6,62.1,30.06,NNW,329,0.0,0.0,65,0.00,,,0.00,844,Wunderground v.1.15,2013-05-17 15:30:00,
2013-05-17 11:40:00,74.9,61.9,30.06,NE,39,0.0,0.0,64,0.00,,,0.00,847,Wunderground v.1.15,2013-05-17 15:40:00,
2013-05-17 11:50:00,74.9,61.9,30.06,ESE,106,1.0,1.0,64,0.00,,,0.00,849,Wunderground v.1.15,2013-05-17 15:50:00,
2013-05-17 12:00:00,75.0,63.3,30.06,SSE,154,0.0,0.0,67,0.00,,,0.00,865,Wunderground v.1.15,2013-05-17 16:00:00,
2013-05-17 12:10:00,76.2,62.7,30.05,WSW,250,0.0,3.0,63,0.00,,,0.00,896,Wunderground v.1.15,2013-05-17 16:10:00,
2013-05-17 12:20:00,76.5,62.0,30.06,North,5,1.0,1.0,61,0.00,,,0.00,853,Wunderground v.1.15,2013-05-17 16:20:00,
2013-05-17 12:30:00,76.3,62.8,30.05,ENE,72,0.0,0.0,63,0.00,,,0.00,898,Wunderground v.1.15,2013-05-17 16:30:00,
2013-05-17 12:40:00,77.0,63.4,30.05,NNW,332,0.0,1.0,63,0.00,,,0.00,900,Wunderground v.1.15,2013-05-17 16:40:00,
2013-05-17 12:50:00,77.6,63.1,30.05,WSW,257,0.0,0.0,61,0.00,,,0.00,907,Wunderground v.1.15,2013-05-17 16:50:00,
2013-05-17 13:00:00,77.6,60.2,30.05,SSE,160,0.0,4.0,55,0.00,,,0.00,907,Wunderground v.1.15,2013-05-17 17:00:00,
2013-05-17 13:10:00,78.0,63.9,30.04,SW,227,1.0,1.0,62,0.00,,,0.00,900,Wunderground v.1.15,2013-05-17 17:10:00,
2013-05-17 13:20:00,77.6,61.7,30.04,ENE,72,1.0,1.0,58,0.00,,,0.00,898,Wunderground v.1.15,2013-05-17 17:20:00,
2013-05-17 13:30:00,78.2,61.7,30.04,SSW,202,1.0,1.0,57,0.00,,,0.00,909,Wunderground v.1.15,2013-05-17 17:30:00,
2013-05-17 13:40:00,78.5,61.0,30.04,SE,136,1.0,1.0,55,0.00,,,0.00,891,Wunderground v.1.15,2013-05-17 17:40:00,
2013-05-17 13:50:00,78.9,61.4,30.03,SW,217,2.0,2.0,55,0.00,,,0.00,891,Wunderground v.1.15,2013-05-17 17:50:00,
2013-05-17 14:00:00,78.9,61.9,30.03,ESE,116,1.0,4.0,56,0.00,,,0.00,879,Wunderground v.1.15,2013-05-17 18:00:00,
2013-05-17 14:10:00,78.7,61.2,30.03,NNW,347,1.0,1.0,55,0.00,,,0.00,921,Wunderground v.1.15,2013-05-17 18:10:00,
2013-05-17 14:20:00,78.7,62.7,30.03,NW,308,0.0,0.0,58,0.00,,,0.00,1023,Wunderground v.1.15,2013-05-17 18:20:00,
2013-05-17 14:30:00,78.8,60.2,30.02,South,175,1.0,1.0,53,0.00,,,0.00,292,Wunderground v.1.15,2013-05-17 18:30:00,
2013-05-17 14:40:00,79.1,62.1,30.02,SE,140,1.0,6.0,56,0.00,,,0.00,404,Wunderground v.1.15,2013-05-17 18:40:00,
2013-05-17 14:50:00,78.7,61.7,30.02,SE,137,1.0,2.0,56,0.00,,,0.00,190,Wunderground v.1.15,2013-05-17 18:50:00,
2013-05-17 15:00:00,78.0,61.5,30.02,SE,135,1.0,1.0,57,0.00,,,0.00,279,Wunderground v.1.15,2013-05-17 19:00:00,
2013-05-17 15:10:00,79.3,62.7,30.02,SE,132,3.0,6.0,57,0.00,,,0.00,881,Wunderground v.1.15,2013-05-17 19:10:00,
2013-05-17 15:20:00,79.3,62.2,30.01,West,262,1.0,1.0,56,0.00,,,0.00,345,Wunderground v.1.15,2013-05-17 19:20:00,
2013-05-17 15:30:00,79.9,63.3,30.01,SE,135,1.0,3.0,57,0.00,,,0.00,947,Wunderground v.1.15,2013-05-17 19:30:00,
2013-05-17 15:40:00,80.3,61.6,30.01,ESE,115,2.0,2.0,53,0.00,,,0.00,796,Wunderground v.1.15,2013-05-17 19:40:00,
2013-05-17 15:50:00,80.8,61.5,30.01,SW,216,1.0,1.0,52,0.00,,,0.00,322,Wunderground v.1.15,2013-05-17 19:50:00,
2013-05-17 16:00:00,79.5,60.3,30.01,ESE,110,1.0,3.0,52,0.00,,,0.00,220,Wunderground v.1.15,2013-05-17 20:00:00,
2013-05-17 16:10:00,79.1,60.0,30.01,SSE,158,1.0,1.0,52,0.00,,,0.00,325,Wunderground v.1.15,2013-05-17 20:10:00,
2013-05-17 16:20:00,80.1,60.9,30.00,ENE,78,1.0,2.0,52,0.00,,,0.00,673,Wunderground v.1.15,2013-05-17 20:20:00,
2013-05-17 16:30:00,80.3,60.5,30.00,SSE,155,1.0,1.0,51,0.00,,,0.00,566,Wunderground v.1.15,2013-05-17 20:30:00,
2013-05-17 16:40:00,80.8,61.5,30.00,SSE,153,1.0,2.0,52,0.00,,,0.00,561,Wunderground v.1.15,2013-05-17 20:40:00,
2013-05-17 16:50:00,80.9,60.5,30.00,SE,139,2.0,2.0,50,0.00,,,0.00,563,Wunderground v.1.15,2013-05-17 20:50:00,
2013-05-17 17:00:00,80.8,60.4,30.00,SW,231,2.0,2.0,50,0.00,,,0.00,135,Wunderground v.1.15,2013-05-17 21:00:00,
2013-05-17 17:10:00,79.4,60.8,30.00,ESE,116,1.0,5.0,53,0.00,,,0.00,171,Wunderground v.1.15,2013-05-17 21:10:00,
2013-05-17 17:20:00,78.6,61.6,30.00,SE,136,1.0,1.0,56,0.00,,,0.00,155,Wunderground v.1.15,2013-05-17 21:20:00,
2013-05-17 17:30:00,78.7,61.7,30.00,ESE,106,1.0,1.0,56,0.00,,,0.00,186,Wunderground v.1.15,2013-05-17 21:30:00,
2013-05-17 17:40:00,78.7,63.2,30.00,ESE,121,0.0,1.0,59,0.00,,,0.00,388,Wunderground v.1.15,2013-05-17 21:40:00,
2013-05-17 17:50:00,79.6,62.0,30.00,ESE,115,1.0,1.0,55,0.00,,,0.00,332,Wunderground v.1.15,2013-05-17 21:50:00,
2013-05-17 18:00:00,79.7,61.6,30.00,SE,134,2.0,3.0,54,0.00,,,0.00,234,Wunderground v.1.15,2013-05-17 22:00:00,
2013-05-17 18:10:00,79.9,61.2,30.00,SE,139,2.0,5.0,53,0.00,,,0.00,299,Wunderground v.1.15,2013-05-17 22:10:00,
2013-05-17 18:20:00,80.2,59.9,30.00,SSE,161,2.0,2.0,50,0.00,,,0.00,162,Wunderground v.1.15,2013-05-17 22:20:00,
2013-05-17 18:30:00,79.6,60.4,30.00,SE,140,1.0,1.0,52,0.00,,,0.00,197,Wunderground v.1.15,2013-05-17 22:30:00,
2013-05-17 18:40:00,79.0,59.3,30.00,SE,126,1.0,3.0,51,0.00,,,0.00,95,Wunderground v.1.15,2013-05-17 22:40:00,
2013-05-17 18:50:00,78.2,59.1,30.00,SSE,148,1.0,1.0,52,0.00,,,0.00,54,Wunderground v.1.15,2013-05-17 22:50:00,
2013-05-17 19:00:00,77.6,59.1,30.01,SSE,148,1.0,1.0,53,0.00,,,0.00,35,Wunderground v.1.15,2013-05-17 23:00:00,
2013-05-17 19:10:00,77.1,58.6,30.01,SE,134,1.0,3.0,53,0.00,,,0.00,26,Wunderground v.1.15,2013-05-17 23:10:00,
2013-05-17 19:20:00,77.0,58.6,30.01,SE,136,1.0,1.0,53,0.00,,,0.00,14,Wunderground v.1.15,2013-05-17 23:20:00,
2013-05-17 19:30:00,76.9,58.5,30.02,SE,132,0.0,0.0,53,0.00,,,0.00,14,Wunderground v.1.15,2013-05-17 23:30:00,
2013-05-17 19:40:00,76.7,58.8,30.02,SE,132,0.0,0.0,54,0.00,,,0.00,23,Wunderground v.1.15,2013-05-17 23:40:00,
2013-05-17 19:50:00,76.3,58.9,30.02,SE,132,0.0,0.0,55,0.00,,,0.00,11,Wunderground v.1.15,2013-05-17 23:50:00,
2013-05-17 20:00:00,75.2,58.4,30.02,SE,132,0.0,0.0,56,0.00,,,0.00,9,Wunderground v.1.15,2013-05-18 00:00:00,
2013-05-17 20:10:00,74.1,60.7,30.03,SE,132,0.0,0.0,63,0.00,,,0.00,5,Wunderground v.1.15,2013-05-18 00:10:00,
2013-05-17 20:20:00,71.9,62.0,30.03,SE,132,0.0,0.0,71,0.00,,,0.00,0,Wunderground v.1.15,2013-05-18 00:20:00,
2013-05-17 20:30:00,71.1,60.0,30.03,SE,132,0.0,0.0,68,0.00,,,0.00,0,Wunderground v.1.15,2013-05-18 00:30:00,
2013-05-17 20:40:00,71.8,59.4,30.03,SE,132,0.0,0.0,65,0.00,,,0.00,0,Wunderground v.1.15,2013-05-18 00:40:00,
2013-05-17 20:50:00,72.1,58.8,30.03,SE,132,0.0,0.0,63,0.00,,,0.00,0,Wunderground v.1.15,2013-05-18 00:50:00,
2013-05-17 21:00:00,72.8,59.5,30.05,SE,131,0.0,0.0,63,0.00,,,0.00,0,Wunderground v.1.15,2013-05-18 01:00:00,
2013-05-17 21:10:00,72.8,58.6,30.05,East,83,1.0,1.0,61,0.00,,,0.00,0,Wunderground v.1.15,2013-05-18 01:10:00,
2013-05-17 21:20:00,72.6,57.9,30.05,ENE,70,1.0,5.0,60,0.00,,,0.00,0,Wunderground v.1.15,2013-05-18 01:20:00,
2013-05-17 21:30:00,72.4,57.3,30.06,East,96,1.0,1.0,59,0.00,,,0.00,0,Wunderground v.1.15,2013-05-18 01:30:00,
2013-05-17 21:40:00,72.1,56.0,30.07,East,85,2.0,2.0,57,0.00,,,0.00,0,Wunderground v.1.15,2013-05-18 01:40:00,
2013-05-17 21:50:00,71.9,55.8,30.07,ESE,110,2.0,2.0,57,0.00,,,0.00,0,Wunderground v.1.15,2013-05-18 01:50:00,
2013-05-17 22:00:00,71.5,55.5,30.07,ESE,113,2.0,2.0,57,0.00,,,0.00,0,Wunderground v.1.15,2013-05-18 02:00:00,
2013-05-17 22:10:00,71.0,55.0,30.07,ESE,118,2.0,9.0,57,0.00,,,0.00,0,Wunderground v.1.15,2013-05-18 02:10:00,
2013-05-17 22:20:00,71.0,54.0,30.07,East,83,3.0,3.0,55,0.00,,,0.00,0,Wunderground v.1.15,2013-05-18 02:20:00,
2013-05-17 22:30:00,70.8,53.8,30.08,ESE,108,3.0,3.0,55,0.00,,,0.00,0,Wunderground v.1.15,2013-05-18 02:30:00,
2013-05-17 22:40:00,70.7,53.7,30.08,ESE,107,3.0,5.0,55,0.00,,,0.00,0,Wunderground v.1.15,2013-05-18 02:40:00,
2013-05-17 22:50:00,70.3,52.9,30.08,ESE,112,2.0,2.0,54,0.00,,,0.00,0,Wunderground v.1.15,2013-05-18 02:50:00,
2013-05-17 23:00:00,70.4,53.0,30.08,ESE,109,2.0,2.0,54,0.00,,,0.00,0,Wunderground v.1.15,2013-05-18 03:00:00,
2013-05-17 23:10:00,70.1,52.7,30.08,ESE,109,2.0,3.0,54,0.00,,,0.00,0,Wunderground v.1.15,2013-05-18 03:10:00,
2013-05-17 23:20:00,69.9,52.5,30.08,SE,124,2.0,2.0,54,0.00,,,0.00,0,Wunderground v.1.15,2013-05-18 03:20:00,
2013-05-17 23:30:00,69.7,52.3,30.08,SE,130,1.0,5.0,54,0.00,,,0.00,0,Wunderground v.1.15,2013-05-18 03:30:00,
2013-05-17 23:40:00,69.6,52.2,30.08,SE,126,1.0,1.0,54,0.00,,,0.00,0,Wunderground v.1.15,2013-05-18 03:40:00,
2013-05-17 23:50:00,69.6,52.2,30.08,ESE,121,1.0,1.0,54,0.00,,,0.00,0,Wunderground v.1.15,2013-05-18 03:50:00,